Location: Estes Par
(40.3770°N, 105.5210°W)
Time: 09:05:44
(UTC-06:00)

ISS - Pass Details

Date: 12 October 2017
Orbit: 401 x 408 km, 51.6° (Epoch: 18 October)

Event Time Altitude Azimuth Distance (km) Brightness Sun altitude
Rises 20:42:16 0° 300° (WNW) 2,319 1.2 -26.6°
Reaches altitude 10° 20:44:27 10° 291° (WNW) 1,457 0.0 -27.0°
Enters shadow 20:45:52 21° 276° (W) 960 -1.2 -27.3°
